Regional Weather Roundup
Issued by NWS Portland, ME

Home | Current Version | Previous Version | Text Only | Print | Product List | Glossary On
Versions: 1 2 3 4 5 6 7 8 9 10 11 12 13 14 15 16 17 18 19 20 21 22 23 24 25 26 27 28 29 30 31 32 33 34 35 36 37 38 39 40 41 42 43 44 45 46 47 48 49 50
000
ASUS41 KGYX 261110
RWRGYX
WEATHER ROUNDUP FOR MAINE AND NEW HAMPSHIRE
NATIONAL WEATHER SERVICE GRAY ME
700 AM EDT SUN APR 26 2015

MEZ002-005-006-010-012-015-018-020-021-024-026-027-029-261200-
MAINE

CITY           SKY/WX    TMP DP  RH WIND       PRES   REMARKS
PORTLAND       CLOUDY    43  33  68 W6        29.66S
SANFORD        CLOUDY    41  28  60 CALM      29.67S
BAR HARBOR     CLOUDY    39  37  93 CALM      29.63S
WISCASSET      CLOUDY    36  33  89 CALM      29.66S
ROCKLAND       MOSUNNY   37  32  81 W3        29.64R
FRYEBURG       MOSUNNY   39  32  76 CALM      29.65F
LEWISTONAUBURN SUNNY     41  32  70 W5        29.65R
AUGUSTA        CLOUDY    39  33  79 CALM      29.65R
WATERVILLE     CLOUDY    36  30  80 CALM      29.62R
BANGOR         PTSUNNY   39  34  82 NW3       29.63S
GREENVILLE       N/A     35  34  96 NW9       29.58R
MILLINOCKET    CLOUDY    39  34  82 CALM      29.63R
HOULTON        CLOUDY    36  33  89 CALM      29.60R
PRESQUE ISLE   CLOUDY    37  34  87 NW6       29.61S
FRENCHVILLE    CLOUDY    36  34  92 N7        29.59R
CARIBOU        CLOUDY    38  35  89 N5        29.59S
$$

NHZ002-005-008-009-011-012-014-261200-
NEW HAMPSHIRE

CITY           SKY/WX    TMP DP  RH WIND       PRES   REMARKS
PORTSMOUTH     PTSUNNY   40  35  80 NW3       29.67R
ROCHESTER      CLOUDY    41  33  73 NW7       29.66R
NASHUA         SUNNY     42  34  73 CALM      29.69R
MANCHESTER     PTSUNNY   43  31  62 CALM      29.67R
CONCORD        CLOUDY    37  32  82 CALM      29.68R
LACONIA        CLOUDY    37  30  75 CALM      29.66S
PLYMOUTH       CLOUDY    42  37  83 CALM      29.68R
BERLIN         CLOUDY    35  31  85 CALM      29.65R
WHITEFIELD     CLOUDY    36  33  89 CALM      29.67R
JAFFREY        CLOUDY    37  32  82 CALM      29.68R
KEENE          CLOUDY    37  32  81 SW3       29.70R
LEBANON        CLOUDY    38  33  82 CALM      29.69R
MT WASHINGTON  FOG       21  21 100 N37G47      N/A  VSB 0   WCI   1
$$

VTZ005-007-008-261200-
VERMONT

CITY           SKY/WX    TMP DP  RH WIND       PRES   REMARKS
ST JOHNSBURY     N/A     37  33  85 MISG      29.68R
MONTPELIER     CLOUDY    37  31  78 NE6       29.72R
BURLINGTON     PTSUNNY   43  35  73 N7        29.72R
$$

MAZ007-012-024-CTZ003-RIZ002-NYZ038-NYZ072-261200-
SOUTHERN NEW ENGLAND AND NY

CITY           SKY/WX    TMP DP  RH WIND       PRES   REMARKS
BOSTON         MOSUNNY   45  31  58 NW5       29.69R
WORCESTER      CLOUDY    42  28  57 NW10      29.67R
NANTUCKET      SUNNY     45  33  63 N8        29.67R
PROVIDENCE     MOSUNNY   45  31  58 W3        29.69S
HARTFORD       PTSUNNY   40  31  70 NW3       29.70R
ALBANY         CLOUDY    42  29  59 W5        29.74R
NEW YORK CITY  MOCLDY    46  30  53 NE9       29.69S
$$

ANZ081-ANZ082-ANZ150-NHZ014-MEZ023>029-261200-
COASTAL MARINE OBSERVATIONS

STATION/POSITION TIME  TEMP    WIND        PRES    WAVE
                       AIR SEA DIR/SP/G            HT/PER
                 (UTC) (F)     (DEG/KT/KT) (MB)    (FT/S)
$$

.............KEY..............
   WCI - WIND CHILL
   TC  - TEMPERATURE IN CELSIUS
   VSB - VISIBILITY IN MILES
   HX  - HEAT INDEX
   FAIR- INDICATES FEW OR NO CLOUDS BELOW 12,000 FT, WITH NO
         SIGNIFICANT WEATHER AND/OR OBSTRUCTIONS TO VISIBILITY.





USA.gov is the U.S. government's official web portal to all federal, state and local government web resources and services.